Regional Weather Roundup
Issued by NWS

Home | Current Version | Previous Version | Text Only | Print | Product List | Glossary On
Versions: 1 2 3 4 5 6 7 8 9 10 11 12 13 14 15 16 17 18 19 20 21 22 23 24 25 26 27 28 29 30 31 32 33 34 35 36 37 38 39 40 41 42 43 44 45 46 47 48 49 50
509
ASUS43 KDMX 190101
RWRIA

WEATHER ROUNDUP FOR IOWA
NATIONAL WEATHER SERVICE DES MOINES IA
700 PM CST SUN FEB 18 2018

NOTE: "FAIR" INDICATES FEW OR NO CLOUDS BELOW 12,000 FEET WITH NO
SIGNIFICANT WEATHER AND/OR OBSTRUCTIONS TO VISIBILITY.

* - THESE STATIONS ARE NOT NWS STATIONS...THUS NOT UNDER NWS
QUALITY CONTROL.  THEY ALSO DO NOT REPORT WEATHER SUCH
AS PRECIPITATION OR FOG.

IAZ001>003-012>014-020>022-031>034-043>046-190200-
   NORTHWEST IOWA

CITY           SKY/WX    TMP DP  RH WIND       PRES   REMARKS
CARROLL *      CLOUDY    39  30  70 S10       29.63S WCI  32
CHEROKEE *     CLOUDY    36  32  84 CALM      29.60S
DENISON *      CLOUDY    45  30  57 S12G17    29.62S
LE MARS *      CLEAR     37  32  81 VRB5G14   29.61R WCI  34
ORANGE CITY *  CLEAR     39  36  87 NW3       29.62R
SHELDON *      CLEAR     37  32  81 CALM      29.60R
SIOUX CITY     CLEAR     37  32  82 NW20      29.62R WCI  27
SPENCER        CLOUDY    37  32  82 SE3       29.62R
STORM LAKE *   CLEAR     37  32  81 S10       29.61R WCI  30
$$

IAZ055>058-069>071-079>083-090>094-190200-
   SOUTHWEST IOWA

CITY           SKY/WX    TMP DP  RH WIND       PRES   REMARKS
ATLANTIC *     MOCLDY    45  32  61 S7        29.64S
AUDUBON *      CLEAR     37  28  70 CALM      29.65S
CLARINDA *     CLOUDY    48  37  66 S8        29.68R
COUNCIL BLFS * CLEAR     45  37  76 SE7       29.61S
CRESTON *      CLOUDY    46  32  57 S12       29.68R
HARLAN  *      CLEAR     43  30  61 S7        29.66R
LAMONI         CLOUDY    50  31  48 S14       29.70R
RED OAK *      CLOUDY    48  37  66 S8        29.65R
SHENANDOAH *   CLOUDY    50  39  66 S10       29.65R
$$

IAZ047>049-059>061-072>074-084-190200-
   CENTRAL IOWA

CITY           SKY/WX    TMP DP  RH WIND       PRES   REMARKS
AMES           CLOUDY    39  30  70 S5        29.68S
ANKENY *       CLOUDY    43  28  56 S5        29.70S
BOONE *        CLOUDY    41  30  65 S6        29.67R
CHARITON *     CLOUDY    48  32  53 S15       29.70R
DES MOINES     CLOUDY    45  28  51 S9        29.69R
GRINNELL*      CLOUDY    38  30  72 SE6       29.73R WCI  34
KNOXVILLE *    CLOUDY    46  28  49 S9        29.70S
MARSHALLTOWN   CLOUDY    39  31  72 SE8       29.71R WCI  33
NEWTON *       CLOUDY    39  30  70 S6        29.71S WCI  35
PELLA *        CLOUDY    45  28  52 S6        29.73R
$$

IAZ004>006-015-016-023>025-035-036-190200-
   NORTH CENTRAL IOWA

CITY           SKY/WX    TMP DP  RH WIND       PRES   REMARKS
CLARION *      CLOUDY    37  36  93 SE14      29.66R WCI  29
ESTHERVILLE    CLOUDY    35  30  82 W3        29.62R
FORT DODGE *   CLEAR     44  28  53 S13       29.65R
MASON CITY     CLOUDY    35  29  78 S8        29.68R WCI  29
FOREST CITY *  FAIR      37  32  81 S12       29.65S WCI  30
WEBSTER CITY * CLEAR     37  30  75 S12       29.65R WCI  30
IOWA FALLS *   FAIR      37  32  80 SE9       29.70R WCI  31
$$

IAZ007>011-017>019-026>030-037>042-050>054-066-190200-
   NORTHEAST IOWA

CITY           SKY/WX    TMP DP  RH WIND       PRES   REMARKS
CEDAR RAPIDS   FAIR      43  29  57 S18G28    29.72F
CHARLES CITY * FAIR      37  32  81 SE10      29.71R WCI  30
CLINTON *      FAIR      39  31  72 MISG        N/A
DECORAH *      FAIR      37  30  75 S12G20    29.73S WCI  30
DUBUQUE        FAIR      36  29  75 S23       29.77R WCI  24
MONTICELLO *   FAIR      39  30  70 SE13G18   29.78R WCI  32
OELWEIN *      FAIR      37  36  93 S16       29.74S WCI  28
WATERLOO       FAIR      38  31  76 SE13      29.72S WCI  30
$$

IAZ064-065-067-068-078-190200-
   EAST CENTRAL IOWA

CITY           SKY/WX    TMP DP  RH WIND       PRES   REMARKS
DAVENPORT      FAIR      42  29  59 SE17      29.84R
IOWA CITY      FAIR      41  29  62 SE10      29.77F
MT. PLEASANT * PTCLDY    41  30  65 S17G23    29.78R
MUSCATINE *    FAIR      43  28  56 SE14      29.80R
QUAD CITIES    FAIR      42  30  62 S9        29.83R
$$

IAZ062-063-075>077-085>089-095>099-190200-
   SOUTHEAST IOWA

CITY           SKY/WX    TMP DP  RH WIND       PRES   REMARKS
BURLINGTON     PTCLDY    44  27  51 S20G26    29.79F
FAIRFIELD *    PTCLDY    46  27  46 S18G25    29.73R
FORT MADISON * CLEAR     45  30  57 S17G26    29.79F
KEOKUK *       CLEAR     46  28  49 S13G22    29.78F
OSKALOOSA *    FAIR      40  30  67 S12       29.72R WCI  33
OTTUMWA        CLOUDY    48  27  44 S21G29    29.69F
WASHINGTON *   PTCLDY    41  32  70 SE14      29.76S
$$

ABBREVIATIONS USED IN REMARKS
   TC - TEMPERATURES IN CELSIUS
  WCI - WIND CHILL INDEX
   HX - HEAT INDEX
  VSB - VISIBILITY
$$





USA.gov is the U.S. government's official web portal to all federal, state and local government web resources and services.